Location: Windsor
(43.2292°N, 89.3015°W)
Time: 10:41:24
(UTC+00:00)

Tiros 1 - Pass Details

Date: 03 June 2022
Orbit: 629 x 663 km, 48.4° (Epoch: 04 July)

Event Time Altitude Azimuth Distance (km) Brightness Sun altitude
Rises 02:17:12 0° 197° (SSW) 2,903 10.3 -7.5°
Reaches altitude 10° 02:20:04 10° 179° (S) 1,997 9.3 -7.9°
Maximum altitude 02:23:16 19° 135° (SE) 1,509 8.4 -8.4°
Drops below altitude 10° 02:26:27 10° 91° (E) 2,004 9.2 -8.8°
Sets 02:29:20 0° 73° (ENE) 2,916 10.2 -9.2°
